Year,Month,Day,Hour,Minute,Value (Times are PST for temperature in C)
2009,07,20,00,00,19.60
2009,07,20,00,01,19.70
2009,07,20,00,02,19.70
2009,07,20,00,03,19.80
2009,07,20,00,04,19.80
2009,07,20,00,05,19.90
2009,07,20,00,06,19.90
2009,07,20,00,07,19.90
2009,07,20,00,08,19.90
2009,07,20,00,09,19.90
2009,07,20,00,10,19.90
2009,07,20,00,11,19.90
2009,07,20,00,12,19.90
2009,07,20,00,13,19.90
2009,07,20,00,14,19.90
2009,07,20,00,15,19.90
2009,07,20,00,16,19.90
2009,07,20,00,17,19.90
2009,07,20,00,18,19.90
2009,07,20,00,19,19.90
2009,07,20,00,20,19.90
2009,07,20,00,21,19.90
2009,07,20,00,22,19.90
2009,07,20,00,23,19.80
2009,07,20,00,24,19.80
2009,07,20,00,25,19.80
2009,07,20,00,26,19.80
2009,07,20,00,27,19.80
2009,07,20,00,28,19.80
2009,07,20,00,29,19.80
2009,07,20,00,30,19.70
2009,07,20,00,31,19.70
2009,07,20,00,32,19.70
2009,07,20,00,33,19.70
2009,07,20,00,34,19.70
2009,07,20,00,35,19.70
2009,07,20,00,36,19.60
2009,07,20,00,37,19.60
2009,07,20,00,38,19.60
2009,07,20,00,39,19.60
2009,07,20,00,40,19.50
2009,07,20,00,41,19.50
2009,07,20,00,42,19.40
2009,07,20,00,43,19.40
2009,07,20,00,44,19.40
2009,07,20,00,45,19.40
2009,07,20,00,46,19.30
2009,07,20,00,47,19.30
2009,07,20,00,48,19.30
2009,07,20,00,49,19.20
2009,07,20,00,50,19.20
2009,07,20,00,51,19.20
2009,07,20,00,52,19.20
2009,07,20,00,53,19.10
2009,07,20,00,54,19.10
2009,07,20,00,55,19.10
2009,07,20,00,56,19.10
2009,07,20,00,57,19.10
2009,07,20,00,58,19.10
2009,07,20,00,59,19.00
2009,07,20,01,00,19.00
2009,07,20,01,01,19.00
2009,07,20,01,02,19.00
2009,07,20,01,03,18.90
2009,07,20,01,04,18.90
2009,07,20,01,05,18.90
2009,07,20,01,06,18.90
2009,07,20,01,07,18.90
2009,07,20,01,08,18.90
2009,07,20,01,09,18.90
2009,07,20,01,10,18.90
2009,07,20,01,11,18.90
2009,07,20,01,12,18.90
2009,07,20,01,13,18.90
2009,07,20,01,14,18.90
2009,07,20,01,15,18.90
2009,07,20,01,16,18.90
2009,07,20,01,17,18.90
2009,07,20,01,18,18.90
2009,07,20,01,19,18.90
2009,07,20,01,20,18.90
2009,07,20,01,21,18.90
2009,07,20,01,22,18.90
2009,07,20,01,23,18.90
2009,07,20,01,24,18.90
2009,07,20,01,25,18.90
2009,07,20,01,26,18.90
2009,07,20,01,27,18.90
2009,07,20,01,28,18.90
2009,07,20,01,29,19.00
2009,07,20,01,30,19.00
2009,07,20,01,31,19.00
2009,07,20,01,32,19.00
2009,07,20,01,33,19.10
2009,07,20,01,34,19.10
2009,07,20,01,35,19.10
2009,07,20,01,36,19.10
2009,07,20,01,37,19.00
2009,07,20,01,38,19.00
2009,07,20,01,39,19.00
2009,07,20,01,40,18.90
2009,07,20,01,41,18.90
2009,07,20,01,42,18.90
2009,07,20,01,43,18.90
2009,07,20,01,44,18.90
2009,07,20,01,45,18.80
2009,07,20,01,46,18.80
2009,07,20,01,47,18.80
2009,07,20,01,48,18.80
2009,07,20,01,49,18.80
2009,07,20,01,50,18.80
2009,07,20,01,51,18.80
2009,07,20,01,52,18.80
2009,07,20,01,53,18.80
2009,07,20,01,54,18.80
2009,07,20,01,55,18.80
2009,07,20,01,56,18.80
2009,07,20,01,57,18.80
2009,07,20,01,58,18.80
2009,07,20,01,59,18.80
2009,07,20,02,00,18.80
2009,07,20,02,01,18.80
2009,07,20,02,02,18.80
2009,07,20,02,03,18.80
2009,07,20,02,04,18.80
2009,07,20,02,05,18.80
2009,07,20,02,06,18.80
2009,07,20,02,07,18.80
2009,07,20,02,08,18.80
2009,07,20,02,09,18.80
2009,07,20,02,10,18.80
2009,07,20,02,11,18.90
2009,07,20,02,12,18.90
2009,07,20,02,13,18.90
2009,07,20,02,14,18.90
2009,07,20,02,15,18.90
2009,07,20,02,16,18.90
2009,07,20,02,17,18.90
2009,07,20,02,18,18.80
2009,07,20,02,19,18.80
2009,07,20,02,20,18.80
2009,07,20,02,21,18.80
2009,07,20,02,22,18.80
2009,07,20,02,23,18.80
2009,07,20,02,24,18.80
2009,07,20,02,25,18.80
2009,07,20,02,26,18.80
2009,07,20,02,27,18.80
2009,07,20,02,28,18.80
2009,07,20,02,29,18.80
2009,07,20,02,30,18.80
2009,07,20,02,31,18.80
2009,07,20,02,32,18.80
2009,07,20,02,33,18.80
2009,07,20,02,34,18.80
2009,07,20,02,35,18.80
2009,07,20,02,36,18.80
2009,07,20,02,37,18.80
2009,07,20,02,38,18.80
2009,07,20,02,39,18.80
2009,07,20,02,40,18.80
2009,07,20,02,41,18.80
2009,07,20,02,42,18.80
2009,07,20,02,43,18.80
2009,07,20,02,44,18.80
2009,07,20,02,45,18.90
2009,07,20,02,46,18.90
2009,07,20,02,47,18.90
2009,07,20,02,48,18.90
2009,07,20,02,49,18.90
2009,07,20,02,50,18.90
2009,07,20,02,51,18.90
2009,07,20,02,52,18.90
2009,07,20,02,53,18.90
2009,07,20,02,54,18.80
2009,07,20,02,55,18.80
2009,07,20,02,56,18.80
2009,07,20,02,57,18.70
2009,07,20,02,58,18.70
2009,07,20,02,59,18.70
2009,07,20,03,00,18.70
2009,07,20,03,01,18.60
2009,07,20,03,02,18.60
2009,07,20,03,03,18.60
2009,07,20,03,04,18.60
2009,07,20,03,05,18.60
2009,07,20,03,06,18.50
2009,07,20,03,07,18.50
2009,07,20,03,08,18.50
2009,07,20,03,09,18.50
2009,07,20,03,10,18.40
2009,07,20,03,11,18.40
2009,07,20,03,12,18.40
2009,07,20,03,13,18.40
2009,07,20,03,14,18.40
2009,07,20,03,15,18.40
2009,07,20,03,16,18.40
2009,07,20,03,17,18.40
2009,07,20,03,18,18.40
2009,07,20,03,19,18.40
2009,07,20,03,20,18.40
2009,07,20,03,21,18.40
2009,07,20,03,22,18.40
2009,07,20,03,23,18.40
2009,07,20,03,24,18.40
2009,07,20,03,25,18.40
2009,07,20,03,26,18.40
2009,07,20,03,27,18.40
2009,07,20,03,28,18.40
2009,07,20,03,29,18.40
2009,07,20,03,30,18.40
2009,07,20,03,31,18.40
2009,07,20,03,32,18.40
2009,07,20,03,33,18.40
2009,07,20,03,34,18.40
2009,07,20,03,35,18.30
2009,07,20,03,36,18.30
2009,07,20,03,37,18.30
2009,07,20,03,38,18.30
2009,07,20,03,39,18.20
2009,07,20,03,40,18.20
2009,07,20,03,41,18.20
2009,07,20,03,42,18.20
2009,07,20,03,43,18.20
2009,07,20,03,44,18.20
2009,07,20,03,45,18.20
2009,07,20,03,46,18.20
2009,07,20,03,47,18.20
2009,07,20,03,48,18.20
2009,07,20,03,49,18.20
2009,07,20,03,50,18.20
2009,07,20,03,51,18.20
2009,07,20,03,52,18.20
2009,07,20,03,53,18.10
2009,07,20,03,54,18.20
2009,07,20,03,55,18.20
2009,07,20,03,56,18.10
2009,07,20,03,57,18.10
2009,07,20,03,58,18.10
2009,07,20,03,59,18.10
2009,07,20,04,00,18.10
2009,07,20,04,01,18.20
2009,07,20,04,02,18.10
2009,07,20,04,03,18.10
2009,07,20,04,04,18.20
2009,07,20,04,05,18.20
2009,07,20,04,06,18.20
2009,07,20,04,07,18.20
2009,07,20,04,08,18.20
2009,07,20,04,09,18.10
2009,07,20,04,10,18.10
2009,07,20,04,11,18.10
2009,07,20,04,12,18.10
2009,07,20,04,13,18.00
2009,07,20,04,14,18.00
2009,07,20,04,15,18.00
2009,07,20,04,16,18.00
2009,07,20,04,17,17.90
2009,07,20,04,18,17.90
2009,07,20,04,19,17.90
2009,07,20,04,20,17.90
2009,07,20,04,21,17.90
2009,07,20,04,22,17.90
2009,07,20,04,23,17.90
2009,07,20,04,24,17.90
2009,07,20,04,25,17.90
2009,07,20,04,26,17.90
2009,07,20,04,27,17.90
2009,07,20,04,28,17.90
2009,07,20,04,29,17.90
2009,07,20,04,30,17.90
2009,07,20,04,31,17.90
2009,07,20,04,32,17.90
2009,07,20,04,33,17.90
2009,07,20,04,34,17.90
2009,07,20,04,35,17.90
2009,07,20,04,36,17.90
2009,07,20,04,37,17.90
2009,07,20,04,38,17.90
2009,07,20,04,39,17.90
2009,07,20,04,40,17.80
2009,07,20,04,41,17.80
2009,07,20,04,42,17.80
2009,07,20,04,43,17.80
2009,07,20,04,44,17.80
2009,07,20,04,45,17.80
2009,07,20,04,46,17.80
2009,07,20,04,47,17.70
2009,07,20,04,48,17.70
2009,07,20,04,49,17.70
2009,07,20,04,50,17.70
2009,07,20,04,51,17.70
2009,07,20,04,52,17.70
2009,07,20,04,53,17.70
2009,07,20,04,54,17.70
2009,07,20,04,55,17.70
2009,07,20,04,56,17.70
2009,07,20,04,57,17.70
2009,07,20,04,58,17.70
2009,07,20,04,59,17.70
2009,07,20,05,00,17.70
2009,07,20,05,01,17.70
2009,07,20,05,02,17.70
2009,07,20,05,03,17.70
2009,07,20,05,04,17.70
2009,07,20,05,05,17.70
2009,07,20,05,06,17.70
2009,07,20,05,07,17.70
2009,07,20,05,08,17.70
2009,07,20,05,09,17.70
2009,07,20,05,10,17.70
2009,07,20,05,11,17.70
2009,07,20,05,12,17.70
2009,07,20,05,13,17.60
2009,07,20,05,14,17.60
2009,07,20,05,15,17.60
2009,07,20,05,16,17.60
2009,07,20,05,17,17.60
2009,07,20,05,18,17.60
2009,07,20,05,19,17.60
2009,07,20,05,20,17.60
2009,07,20,05,21,17.60
2009,07,20,05,22,17.70
2009,07,20,05,23,17.70
2009,07,20,05,24,17.70
2009,07,20,05,25,17.70
2009,07,20,05,26,17.70
2009,07,20,05,27,17.70
2009,07,20,05,28,17.70
2009,07,20,05,29,17.60
2009,07,20,05,30,17.60
2009,07,20,05,31,17.60
2009,07,20,05,32,17.60
2009,07,20,05,33,17.60
2009,07,20,05,34,17.60
2009,07,20,05,35,17.60
2009,07,20,05,36,17.60
2009,07,20,05,37,17.60
2009,07,20,05,38,17.50
2009,07,20,05,39,17.50
2009,07,20,05,40,17.50
2009,07,20,05,41,17.60
2009,07,20,05,42,17.60
2009,07,20,05,43,17.60
2009,07,20,05,44,17.60
2009,07,20,05,45,17.60
2009,07,20,05,46,17.60
2009,07,20,05,47,17.60
2009,07,20,05,48,17.60
2009,07,20,05,49,17.60
2009,07,20,05,50,17.50
2009,07,20,05,51,17.50
2009,07,20,05,52,17.50
2009,07,20,05,53,17.50
2009,07,20,05,54,17.50
2009,07,20,05,55,17.50
2009,07,20,05,56,17.50
2009,07,20,05,57,17.50
2009,07,20,05,58,17.50
2009,07,20,05,59,17.50
2009,07,20,06,00,17.50
2009,07,20,06,01,17.50
2009,07,20,06,02,17.60
2009,07,20,06,03,17.60
2009,07,20,06,04,17.60
2009,07,20,06,05,17.60
2009,07,20,06,06,17.60
2009,07,20,06,07,17.60
2009,07,20,06,08,17.60
2009,07,20,06,09,17.60
2009,07,20,06,10,17.60
2009,07,20,06,11,17.60
2009,07,20,06,12,17.70
2009,07,20,06,13,17.70
2009,07,20,06,14,17.70
2009,07,20,06,15,17.70
2009,07,20,06,16,17.80
2009,07,20,06,17,17.80
2009,07,20,06,18,17.80
2009,07,20,06,19,17.80
2009,07,20,06,20,17.80
2009,07,20,06,21,17.80
2009,07,20,06,22,17.80
2009,07,20,06,23,17.80
2009,07,20,06,24,17.80
2009,07,20,06,25,17.80
2009,07,20,06,26,17.80
2009,07,20,06,27,17.80
2009,07,20,06,28,17.80
2009,07,20,06,29,17.80
2009,07,20,06,30,17.80
2009,07,20,06,31,17.80
2009,07,20,06,32,17.80
2009,07,20,06,33,17.80
2009,07,20,06,34,17.80
2009,07,20,06,35,17.80
2009,07,20,06,36,17.90
2009,07,20,06,37,17.90
2009,07,20,06,38,17.90
2009,07,20,06,39,17.90
2009,07,20,06,40,17.90
2009,07,20,06,41,18.00
2009,07,20,06,42,18.00
2009,07,20,06,43,18.00
2009,07,20,06,44,18.00
2009,07,20,06,45,18.10
2009,07,20,06,46,18.10
2009,07,20,06,47,18.10
2009,07,20,06,48,18.10
2009,07,20,06,49,18.20
2009,07,20,06,50,18.20
2009,07,20,06,51,18.20
2009,07,20,06,52,18.20
2009,07,20,06,53,18.20
2009,07,20,06,54,18.20
2009,07,20,06,55,18.30
2009,07,20,06,56,18.30
2009,07,20,06,57,18.30
2009,07,20,06,58,18.30
2009,07,20,06,59,18.30
2009,07,20,07,00,18.30
2009,07,20,07,01,18.30
2009,07,20,07,02,18.40
2009,07,20,07,03,18.40
2009,07,20,07,04,18.40
2009,07,20,07,05,18.40
2009,07,20,07,06,18.50
2009,07,20,07,07,18.50
2009,07,20,07,08,18.50
2009,07,20,07,09,18.60
2009,07,20,07,10,18.60
2009,07,20,07,11,18.60
2009,07,20,07,12,18.60
2009,07,20,07,13,18.70
2009,07,20,07,14,18.70
2009,07,20,07,15,18.70
2009,07,20,07,16,18.70
2009,07,20,07,17,18.80
2009,07,20,07,18,18.80
2009,07,20,07,19,18.80
2009,07,20,07,20,18.80
2009,07,20,07,21,18.80
2009,07,20,07,22,18.80
2009,07,20,07,23,18.80
2009,07,20,07,24,18.90
2009,07,20,07,25,18.90
2009,07,20,07,26,18.90
2009,07,20,07,27,18.90
2009,07,20,07,28,18.90
2009,07,20,07,29,18.90
2009,07,20,07,30,18.90
2009,07,20,07,31,19.00
2009,07,20,07,32,19.00
2009,07,20,07,33,19.10
2009,07,20,07,34,19.10
2009,07,20,07,35,19.10
2009,07,20,07,36,19.20
2009,07,20,07,37,19.20
2009,07,20,07,38,19.20
2009,07,20,07,39,19.30
2009,07,20,07,40,19.30
2009,07,20,07,41,19.30
2009,07,20,07,42,19.40
2009,07,20,07,43,19.40
2009,07,20,07,44,19.40
2009,07,20,07,45,19.40
2009,07,20,07,46,19.40
2009,07,20,07,47,19.50
2009,07,20,07,48,19.50
2009,07,20,07,49,19.50
2009,07,20,07,50,19.60
2009,07,20,07,51,19.60
2009,07,20,07,52,19.60
2009,07,20,07,53,19.60
2009,07,20,07,54,19.70
2009,07,20,07,55,19.70
2009,07,20,07,56,19.70
2009,07,20,07,57,19.70
2009,07,20,07,58,19.70
2009,07,20,07,59,19.70
2009,07,20,08,00,19.70
2009,07,20,08,01,19.70
2009,07,20,08,02,19.70
2009,07,20,08,03,19.80
2009,07,20,08,04,19.80
2009,07,20,08,05,19.80
2009,07,20,08,06,19.90
2009,07,20,08,07,19.90
2009,07,20,08,08,19.90
2009,07,20,08,09,19.90
2009,07,20,08,10,20.00
2009,07,20,08,11,20.00
2009,07,20,08,12,20.00
2009,07,20,08,13,20.10
2009,07,20,08,14,20.10
2009,07,20,08,15,20.10
2009,07,20,08,16,20.20
2009,07,20,08,17,20.20
2009,07,20,08,18,20.20
2009,07,20,08,19,20.20
2009,07,20,08,20,20.20
2009,07,20,08,21,20.20
2009,07,20,08,22,20.20
2009,07,20,08,23,20.30
2009,07,20,08,24,20.30
2009,07,20,08,25,20.40
2009,07,20,08,26,20.40
2009,07,20,08,27,20.40
2009,07,20,08,28,20.50
2009,07,20,08,29,20.50
2009,07,20,08,30,20.50
2009,07,20,08,31,20.40
2009,07,20,08,32,20.40
2009,07,20,08,33,20.40
2009,07,20,08,34,20.50
2009,07,20,08,35,20.50
2009,07,20,08,36,20.50
2009,07,20,08,37,20.50
2009,07,20,08,38,20.50
2009,07,20,08,39,20.60
2009,07,20,08,40,20.60
2009,07,20,08,41,20.60
2009,07,20,08,42,20.60
2009,07,20,08,43,20.60
2009,07,20,08,44,20.60
2009,07,20,08,45,20.60
2009,07,20,08,46,20.60
2009,07,20,08,47,20.60
2009,07,20,08,48,20.60
2009,07,20,08,49,20.70
2009,07,20,08,50,20.70
2009,07,20,08,51,20.70
2009,07,20,08,52,20.70
2009,07,20,08,53,20.70
2009,07,20,08,54,20.80
2009,07,20,08,55,20.80
2009,07,20,08,56,20.80
2009,07,20,08,57,20.90
2009,07,20,08,58,20.90
2009,07,20,08,59,21.00
2009,07,20,09,00,21.00
2009,07,20,09,01,21.00
2009,07,20,09,02,21.10
2009,07,20,09,03,21.00
2009,07,20,09,04,21.00
2009,07,20,09,05,21.00
2009,07,20,09,06,21.00
2009,07,20,09,07,21.10
2009,07,20,09,08,21.10
2009,07,20,09,09,21.20
2009,07,20,09,10,21.20
2009,07,20,09,11,21.20
2009,07,20,09,12,21.30
2009,07,20,09,13,21.30
2009,07,20,09,14,21.30
2009,07,20,09,15,21.30
2009,07,20,09,16,21.40
2009,07,20,09,17,21.40
2009,07,20,09,18,21.40
2009,07,20,09,19,21.50
2009,07,20,09,20,21.50
2009,07,20,09,21,21.50
2009,07,20,09,22,21.60
2009,07,20,09,23,21.70
2009,07,20,09,24,21.70
2009,07,20,09,25,21.70
2009,07,20,09,26,21.80
2009,07,20,09,27,21.80
2009,07,20,09,28,21.80
2009,07,20,09,29,21.90
2009,07,20,09,30,21.90
2009,07,20,09,31,22.00
2009,07,20,09,32,22.00
2009,07,20,09,33,21.90
2009,07,20,09,34,21.90
2009,07,20,09,35,22.00
2009,07,20,09,36,22.00
2009,07,20,09,37,22.10
2009,07,20,09,38,22.10
2009,07,20,09,39,22.10
2009,07,20,09,40,22.20
2009,07,20,09,41,22.20
2009,07,20,09,42,22.20
2009,07,20,09,43,22.20
2009,07,20,09,44,22.30
2009,07,20,09,45,22.40
2009,07,20,09,46,22.40
2009,07,20,09,47,22.50
2009,07,20,09,48,22.60
2009,07,20,09,49,22.70
2009,07,20,09,50,22.80
2009,07,20,09,51,22.80
2009,07,20,09,52,22.90
2009,07,20,09,53,22.90
2009,07,20,09,54,22.90
2009,07,20,09,55,22.80
2009,07,20,09,56,22.80
2009,07,20,09,57,22.80
2009,07,20,09,58,22.80
2009,07,20,09,59,22.90
2009,07,20,10,00,22.90
2009,07,20,10,01,22.90
2009,07,20,10,02,22.90
2009,07,20,10,03,23.00
2009,07,20,10,04,23.00
2009,07,20,10,05,23.10
2009,07,20,10,06,23.20
2009,07,20,10,07,23.30
2009,07,20,10,08,23.30
2009,07,20,10,09,23.30
2009,07,20,10,10,23.30
2009,07,20,10,11,23.40
2009,07,20,10,12,23.40
2009,07,20,10,13,23.40
2009,07,20,10,14,23.40
2009,07,20,10,15,23.40
2009,07,20,10,16,23.30
2009,07,20,10,17,23.30
2009,07,20,10,18,23.40
2009,07,20,10,19,23.40
2009,07,20,10,20,23.50
2009,07,20,10,21,23.60
2009,07,20,10,22,23.60
2009,07,20,10,23,23.60
2009,07,20,10,24,23.60
2009,07,20,10,25,23.60
2009,07,20,10,26,23.60
2009,07,20,10,27,23.60
2009,07,20,10,28,23.70
2009,07,20,10,29,23.70
2009,07,20,10,30,23.80
2009,07,20,10,31,23.80
2009,07,20,10,32,23.90
2009,07,20,10,33,23.90
2009,07,20,10,34,23.80
2009,07,20,10,35,23.70
2009,07,20,10,36,23.70
2009,07,20,10,37,23.70
2009,07,20,10,38,23.70
2009,07,20,10,39,23.70
2009,07,20,10,40,23.70
2009,07,20,10,41,23.70
2009,07,20,10,42,23.70
2009,07,20,10,43,23.70
2009,07,20,10,44,23.80
2009,07,20,10,45,23.80
2009,07,20,10,46,23.90
2009,07,20,10,47,23.90
2009,07,20,10,48,23.90
2009,07,20,10,49,23.90
2009,07,20,10,50,23.90
2009,07,20,10,51,23.80
2009,07,20,10,52,23.80
2009,07,20,10,53,23.80
2009,07,20,10,54,23.90
2009,07,20,10,55,23.90
2009,07,20,10,56,23.90
2009,07,20,10,57,23.90
2009,07,20,10,58,23.90
2009,07,20,10,59,24.00
2009,07,20,11,00,24.00
2009,07,20,11,01,24.00
2009,07,20,11,02,24.10
2009,07,20,11,03,24.10
2009,07,20,11,04,24.20
2009,07,20,11,05,24.30
2009,07,20,11,06,24.40
2009,07,20,11,07,24.50
2009,07,20,11,08,24.50
2009,07,20,11,09,24.50
2009,07,20,11,10,24.60
2009,07,20,11,11,24.60
2009,07,20,11,12,24.60
2009,07,20,11,13,24.70
2009,07,20,11,14,24.60
2009,07,20,11,15,24.60
2009,07,20,11,16,24.50
2009,07,20,11,17,24.40
2009,07,20,11,18,24.40
2009,07,20,11,19,24.40
2009,07,20,11,20,24.50
2009,07,20,11,21,24.50
2009,07,20,11,22,24.50
2009,07,20,11,23,24.50
2009,07,20,11,24,24.50
2009,07,20,11,25,24.50
2009,07,20,11,26,24.50
2009,07,20,11,27,24.50
2009,07,20,11,28,24.50
2009,07,20,11,29,24.50
2009,07,20,11,30,24.50
2009,07,20,11,31,24.60
2009,07,20,11,32,24.60
2009,07,20,11,33,24.50
2009,07,20,11,34,24.50
2009,07,20,11,35,24.40
2009,07,20,11,36,24.40
2009,07,20,11,37,24.30
2009,07,20,11,38,24.30
2009,07,20,11,39,24.40
2009,07,20,11,40,24.40
2009,07,20,11,41,24.40
2009,07,20,11,42,24.40
2009,07,20,11,43,24.50
2009,07,20,11,44,24.60
2009,07,20,11,45,24.60
2009,07,20,11,46,24.70
2009,07,20,11,47,24.80
2009,07,20,11,48,24.80
2009,07,20,11,49,24.80
2009,07,20,11,50,24.70
2009,07,20,11,51,24.70
2009,07,20,11,52,24.80
2009,07,20,11,53,24.80
2009,07,20,11,54,24.80
2009,07,20,11,55,24.80
2009,07,20,11,56,24.90
2009,07,20,11,57,24.90
2009,07,20,11,58,25.00
2009,07,20,11,59,24.90
2009,07,20,12,00,25.00
2009,07,20,12,01,25.10
2009,07,20,12,02,25.10
2009,07,20,12,03,25.20
2009,07,20,12,04,25.20
2009,07,20,12,05,25.20
2009,07,20,12,06,25.30
2009,07,20,12,07,25.30
2009,07,20,12,08,25.30
2009,07,20,12,09,25.40
2009,07,20,12,10,25.30
2009,07,20,12,11,25.30
2009,07,20,12,12,25.30
2009,07,20,12,13,25.30
2009,07,20,12,14,25.30
2009,07,20,12,15,25.40
2009,07,20,12,16,25.40
2009,07,20,12,17,25.40
2009,07,20,12,18,25.50
2009,07,20,12,19,25.60
2009,07,20,12,20,25.70
2009,07,20,12,21,25.80
2009,07,20,12,22,25.90
2009,07,20,12,23,26.00
2009,07,20,12,24,26.10
2009,07,20,12,25,26.20
2009,07,20,12,26,26.20
2009,07,20,12,27,26.20
2009,07,20,12,28,26.20
2009,07,20,12,29,26.00
2009,07,20,12,30,25.90
2009,07,20,12,31,25.90
2009,07,20,12,32,25.90
2009,07,20,12,33,25.90
2009,07,20,12,34,25.90
2009,07,20,12,35,25.90
2009,07,20,12,36,25.90
2009,07,20,12,37,25.80
2009,07,20,12,38,25.80
2009,07,20,12,39,25.80
2009,07,20,12,40,25.80
2009,07,20,12,41,25.80
2009,07,20,12,42,25.90
2009,07,20,12,43,25.90
2009,07,20,12,44,26.00
2009,07,20,12,45,26.10
2009,07,20,12,46,26.10
2009,07,20,12,47,26.20
2009,07,20,12,48,26.30
2009,07,20,12,49,26.40
2009,07,20,12,50,26.40
2009,07,20,12,51,26.30
2009,07,20,12,52,26.20
2009,07,20,12,53,26.20
2009,07,20,12,54,26.30
2009,07,20,12,55,26.40
2009,07,20,12,56,26.40
2009,07,20,12,57,26.50
2009,07,20,12,58,26.60
2009,07,20,12,59,26.60
2009,07,20,13,00,26.60
2009,07,20,13,01,26.70
2009,07,20,13,02,26.70
2009,07,20,13,03,26.80
2009,07,20,13,04,26.80
2009,07,20,13,05,26.80
2009,07,20,13,06,26.70
2009,07,20,13,07,26.60
2009,07,20,13,08,26.60
2009,07,20,13,09,26.60
2009,07,20,13,10,26.70
2009,07,20,13,11,26.70
2009,07,20,13,12,26.80
2009,07,20,13,13,26.80
2009,07,20,13,14,26.80
2009,07,20,13,15,26.80
2009,07,20,13,16,26.80
2009,07,20,13,17,26.80
2009,07,20,13,18,26.80
2009,07,20,13,19,26.70
2009,07,20,13,20,26.70
2009,07,20,13,21,26.60
2009,07,20,13,22,26.70
2009,07,20,13,23,26.60
2009,07,20,13,24,26.60
2009,07,20,13,25,26.70
2009,07,20,13,26,26.80
2009,07,20,13,27,26.80
2009,07,20,13,28,26.80
2009,07,20,13,29,26.80
2009,07,20,13,30,26.80
2009,07,20,13,31,26.90
2009,07,20,13,32,26.90
2009,07,20,13,33,26.90
2009,07,20,13,34,26.90
2009,07,20,13,35,26.90
2009,07,20,13,36,26.90
2009,07,20,13,37,26.80
2009,07,20,13,38,26.70
2009,07,20,13,39,26.60
2009,07,20,13,40,26.60
2009,07,20,13,41,26.60
2009,07,20,13,42,26.60
2009,07,20,13,43,26.60
2009,07,20,13,44,26.60
2009,07,20,13,45,26.60
2009,07,20,13,46,26.70
2009,07,20,13,47,26.70
2009,07,20,13,48,26.70
2009,07,20,13,49,26.70
2009,07,20,13,50,26.60
2009,07,20,13,51,26.60
2009,07,20,13,52,26.60
2009,07,20,13,53,26.50
2009,07,20,13,54,26.60
2009,07,20,13,55,26.60
2009,07,20,13,56,26.70
2009,07,20,13,57,26.80
2009,07,20,13,58,26.90
2009,07,20,13,59,26.90
2009,07,20,14,00,26.90
2009,07,20,14,01,27.00
2009,07,20,14,02,27.00
2009,07,20,14,03,27.10
2009,07,20,14,04,27.10
2009,07,20,14,05,27.20
2009,07,20,14,06,27.20
2009,07,20,14,07,27.20
2009,07,20,14,08,27.20
2009,07,20,14,09,27.30
2009,07,20,14,10,27.30
2009,07,20,14,11,27.40
2009,07,20,14,12,27.50
2009,07,20,14,13,27.50
2009,07,20,14,14,27.60
2009,07,20,14,15,27.70
2009,07,20,14,16,27.70
2009,07,20,14,17,27.70
2009,07,20,14,18,27.70
2009,07,20,14,19,27.70
2009,07,20,14,20,27.80
2009,07,20,14,21,27.80
2009,07,20,14,22,27.80
2009,07,20,14,23,27.90
2009,07,20,14,24,27.90
2009,07,20,14,25,27.90
2009,07,20,14,26,27.80
2009,07,20,14,27,27.80
2009,07,20,14,28,27.70
2009,07,20,14,29,27.70
2009,07,20,14,30,27.70
2009,07,20,14,31,27.70
2009,07,20,14,32,27.80
2009,07,20,14,33,27.80
2009,07,20,14,34,27.80
2009,07,20,14,35,27.90
2009,07,20,14,36,27.90
2009,07,20,14,37,28.00
2009,07,20,14,38,28.10
2009,07,20,14,39,28.20
2009,07,20,14,40,28.40
2009,07,20,14,41,28.50
2009,07,20,14,42,28.60
2009,07,20,14,43,28.60
2009,07,20,14,44,28.50
2009,07,20,14,45,28.40
2009,07,20,14,46,28.40
2009,07,20,14,47,28.40
2009,07,20,14,48,28.30
2009,07,20,14,49,28.30
2009,07,20,14,50,28.20
2009,07,20,14,51,28.20
2009,07,20,14,52,28.20
2009,07,20,14,53,28.20
2009,07,20,14,54,28.20
2009,07,20,14,55,28.30
2009,07,20,14,56,28.30
2009,07,20,14,57,28.20
2009,07,20,14,58,28.20
2009,07,20,14,59,28.10
2009,07,20,15,00,28.10
2009,07,20,15,01,28.10
2009,07,20,15,02,28.00
2009,07,20,15,03,28.00
2009,07,20,15,04,28.00
2009,07,20,15,05,28.00
2009,07,20,15,06,27.90
2009,07,20,15,07,27.90
2009,07,20,15,08,27.90
2009,07,20,15,09,27.90
2009,07,20,15,10,27.90
2009,07,20,15,11,27.80
2009,07,20,15,12,27.90
2009,07,20,15,13,27.90
2009,07,20,15,14,27.90
2009,07,20,15,15,28.00
2009,07,20,15,16,28.00
2009,07,20,15,17,28.10
2009,07,20,15,18,28.10
2009,07,20,15,19,28.10
2009,07,20,15,20,28.20
2009,07,20,15,21,28.20
2009,07,20,15,22,28.30
2009,07,20,15,23,28.40
2009,07,20,15,24,28.50
2009,07,20,15,25,28.40
2009,07,20,15,26,28.40
2009,07,20,15,27,28.30
2009,07,20,15,28,28.30
2009,07,20,15,29,28.30
2009,07,20,15,30,28.30
2009,07,20,15,31,28.40
2009,07,20,15,32,28.40
2009,07,20,15,33,28.40
2009,07,20,15,34,28.40
2009,07,20,15,35,28.30
2009,07,20,15,36,28.20
2009,07,20,15,37,28.30
2009,07,20,15,38,28.30
2009,07,20,15,39,28.30
2009,07,20,15,40,28.30
2009,07,20,15,41,28.40
2009,07,20,15,42,28.40
2009,07,20,15,43,28.50
2009,07,20,15,44,28.60
2009,07,20,15,45,28.70
2009,07,20,15,46,28.80
2009,07,20,15,47,28.80
2009,07,20,15,48,28.80
2009,07,20,15,49,28.90
2009,07,20,15,50,28.90
2009,07,20,15,51,29.00
2009,07,20,15,52,29.00
2009,07,20,15,53,28.90
2009,07,20,15,54,28.80
2009,07,20,15,55,28.80
2009,07,20,15,56,28.70
2009,07,20,15,57,28.70
2009,07,20,15,58,28.70
2009,07,20,15,59,28.60
2009,07,20,16,00,28.60
2009,07,20,16,01,28.50
2009,07,20,16,02,28.50
2009,07,20,16,03,28.40
2009,07,20,16,04,28.40
2009,07,20,16,05,28.30
2009,07,20,16,06,28.20
2009,07,20,16,07,28.10
2009,07,20,16,08,28.00
2009,07,20,16,09,27.90
2009,07,20,16,10,27.90
2009,07,20,16,11,27.80
2009,07,20,16,12,27.80
2009,07,20,16,13,27.80
2009,07,20,16,14,27.80
2009,07,20,16,15,27.70
2009,07,20,16,16,27.60
2009,07,20,16,17,27.50
2009,07,20,16,18,27.50
2009,07,20,16,19,27.40
2009,07,20,16,20,27.40
2009,07,20,16,21,27.30
2009,07,20,16,22,27.20
2009,07,20,16,23,27.20
2009,07,20,16,24,27.20
2009,07,20,16,25,27.20
2009,07,20,16,26,27.30
2009,07,20,16,27,27.30
2009,07,20,16,28,27.30
2009,07,20,16,29,27.30
2009,07,20,16,30,27.40
2009,07,20,16,31,27.40
2009,07,20,16,32,27.40
2009,07,20,16,33,27.40
2009,07,20,16,34,27.40
2009,07,20,16,35,27.40
2009,07,20,16,36,27.40
2009,07,20,16,37,27.30
2009,07,20,16,38,27.30
2009,07,20,16,39,27.30
2009,07,20,16,40,27.30
2009,07,20,16,41,27.30
2009,07,20,16,42,27.20
2009,07,20,16,43,27.20
2009,07,20,16,44,27.20
2009,07,20,16,45,27.20
2009,07,20,16,46,27.20
2009,07,20,16,47,27.20
2009,07,20,16,48,27.20
2009,07,20,16,49,27.30
2009,07,20,16,50,27.30
2009,07,20,16,51,27.30
2009,07,20,16,52,27.40
2009,07,20,16,53,27.50
2009,07,20,16,54,27.60
2009,07,20,16,55,27.70
2009,07,20,16,56,27.70
2009,07,20,16,57,27.80
2009,07,20,16,58,27.90
2009,07,20,16,59,28.00
2009,07,20,17,00,28.10
2009,07,20,17,01,28.20
2009,07,20,17,02,28.20
2009,07,20,17,03,28.40
2009,07,20,17,04,28.50
2009,07,20,17,05,28.60
2009,07,20,17,06,28.70
2009,07,20,17,07,28.70
2009,07,20,17,08,28.80
2009,07,20,17,09,28.90
2009,07,20,17,10,28.90
2009,07,20,17,11,29.00
2009,07,20,17,12,29.00
2009,07,20,17,13,29.00
2009,07,20,17,14,29.00
2009,07,20,17,15,29.00
2009,07,20,17,16,28.90
2009,07,20,17,17,28.90
2009,07,20,17,18,29.00
2009,07,20,17,19,29.00